Weather History for Port Lavaca, TX

Change the Weather History Date:

Wednesday, May 7, 2014

  Actual Average (KVCT) Record (KVCT)
Temperature  
Mean Temperature 74 °F 75 °F  
Max Temperature 81 °F 85 °F 96 °F (1933)
Min Temperature 68 °F 65 °F 49 °F (1917)
Degree Days  
Heating Degree Days 0 0  
Month to date heating degree days 0  
Since 1 July heating degree days 1248  
Cooling Degree Days 9 10  
Month to date cooling degree days 66  
Year to date cooling degree days 355  
Growing Degree Days 24 (Base 50)    
Moisture  
Dew Point 69 °F    
Average Humidity 85    
Maximum Humidity 94    
Minimum Humidity 71    
Precipitation  
Precipitation 0.00 in 0.15 in 7.49 in (1972)
Month to date precipitation 1.07  
Year to date precipitation 11.26  
Snow  
Snow 0.00 in - - ()
Month to date snowfall  
Since 1 July snowfall  
Snow Depth -    
Sea Level Pressure  
Sea Level Pressure 29.86 in    
Wind  
Wind Speed 12 mph (SSE)    
Max Wind Speed 25 mph    
Max Gust Speed 32 mph    
Visibility 9 miles    
Events      
T = Trace of Precipitation, MM = Missing Value Source: NWS Daily Summary

Daily Weather History Graph

Daily Weather History Graph

Search for Another Location

Airport:

Trip Planner

Search our weather history database for the weather conditions in past years. The results will help you decide how hot, cold, wet, or windy it might be!

Date:

Astronomy

May. 07, 2014 Rise Set
Actual Time 6:41 AM CDT 8:05 PM CDT
Civil Twilight 6:15 AM CDT 8:31 PM CDT
Nautical Twilight 5:45 AM CDT 9:01 PM CDT
Astronomical Twilight 5:14 AM CDT 9:32 PM CDT
Moon 1:44 PM CDT (5/7) 2:06 AM CDT (5/7)
Length of Visible Light 14h 15m
Length of Day
13h 24m
First Quarter, 55% of the Moon is Illuminated
May 7
First Quarter
May 14
Full
May 21
Last Quarter
May 28
New
Jun 5
First Quarter

Hourly Weather History & Observations

Time (CDT) Temp. Heat Index Dew Point Humidity Pressure Visibility Wind Dir Wind Speed Gust Speed Precip Events Conditions
12:15 AM 68.9 °F - 66.2 °F 91% 29.87 in 10.0 mi SE 8.1 mph - N/A   Clear
12:35 AM 68.5 °F - 66.2 °F 92% 29.87 in 10.0 mi SE 6.9 mph - N/A   Scattered Clouds
12:55 AM 69.1 °F - 66.6 °F 92% 29.87 in 10.0 mi SSE 8.1 mph - N/A   Mostly Cloudy
1:15 AM 69.4 °F - 66.6 °F 91% 29.87 in 10.0 mi SSE 8.1 mph - N/A   Overcast
1:35 AM 69.8 °F - 66.7 °F 90% 29.87 in 10.0 mi SSE 6.9 mph - N/A   Overcast
1:55 AM 70.0 °F - 66.7 °F 89% 29.87 in 10.0 mi SSE 8.1 mph - N/A   Overcast
2:15 AM 70.0 °F - 66.7 °F 89% 29.86 in 10.0 mi SSE 9.2 mph - N/A   Overcast
2:35 AM 70.2 °F - 67.1 °F 90% 29.86 in 10.0 mi SSE 8.1 mph - N/A   Overcast
2:55 AM 70.3 °F - 67.1 °F 89% 29.86 in 10.0 mi SSE 8.1 mph - N/A   Overcast
3:15 AM 70.3 °F - 67.3 °F 90% 29.86 in 10.0 mi SSE 9.2 mph - N/A   Overcast
3:35 AM 70.3 °F - 67.3 °F 90% 29.86 in 10.0 mi SSE 9.2 mph - N/A   Mostly Cloudy
3:55 AM 70.0 °F - 67.1 °F 91% 29.85 in 10.0 mi SSE 6.9 mph - N/A   Mostly Cloudy
4:15 AM 69.8 °F - 67.3 °F 92% 29.86 in 10.0 mi South 5.8 mph - N/A   Mostly Cloudy
4:35 AM 69.6 °F - 67.1 °F 92% 29.86 in 10.0 mi South 5.8 mph - N/A   Mostly Cloudy
4:55 AM 69.1 °F - 66.7 °F 92% 29.86 in 10.0 mi SSE 4.6 mph - N/A   Mostly Cloudy
5:15 AM 68.9 °F - 66.7 °F 93% 29.86 in 10.0 mi SSE 3.5 mph - N/A   Mostly Cloudy
5:35 AM 68.9 °F - 66.9 °F 93% 29.85 in 10.0 mi SE 5.8 mph - N/A   Scattered Clouds
5:55 AM 68.9 °F - 67.1 °F 94% 29.86 in 10.0 mi SSE 6.9 mph - N/A   Scattered Clouds
6:15 AM 69.1 °F - 67.1 °F 93% 29.86 in 10.0 mi SSE 8.1 mph - N/A   Mostly Cloudy
6:35 AM 69.3 °F - 67.1 °F 93% 29.86 in 10.0 mi SSE 10.4 mph - N/A   Scattered Clouds
6:55 AM 69.4 °F - 67.1 °F 92% 29.86 in 10.0 mi SE 9.2 mph - N/A   Clear
7:15 AM 69.8 °F - 67.1 °F 91% 29.87 in 10.0 mi SE 10.4 mph - N/A   Clear
7:35 AM 70.7 °F - 67.3 °F 89% 29.87 in 10.0 mi SE 12.7 mph 16.1 mph N/A   Clear
7:55 AM 71.1 °F - 67.6 °F 89% 29.87 in 10.0 mi SSE 12.7 mph - N/A   Clear
8:15 AM 71.6 °F - 68.0 °F 88% 29.87 in 10.0 mi SE 13.8 mph - N/A   Clear
8:55 AM 74.8 °F - 68.4 °F 80% 29.89 in 10.0 mi SSE 15.0 mph 21.9 mph N/A   Clear
9:15 AM 75.7 °F - 68.0 °F 77% 29.90 in 10.0 mi SSE 17.3 mph - N/A   Clear
9:35 AM 77.2 °F - 68.2 °F 74% 29.90 in 10.0 mi SSE 16.1 mph 25.3 mph N/A   Clear
9:55 AM 78.4 °F - 68.9 °F 72% 29.89 in 10.0 mi SE 20.7 mph 24.2 mph N/A   Clear
11:35 AM 79.3 °F - 69.6 °F 72% 29.88 in 10.0 mi SSE 20.7 mph 32.2 mph N/A   Scattered Clouds
12:15 PM 80.1 °F 83.2 °F 69.8 °F 71% 29.90 in 10.0 mi South 16.1 mph 23.0 mph N/A   Scattered Clouds
12:30 PM 79.5 °F - 69.6 °F 72% 29.90 in 10.0 mi SSE 19.6 mph 24.2 mph N/A   Scattered Clouds
1:30 PM 79.3 °F - 69.3 °F 71% 29.90 in 10.0 mi SSE 18.4 mph - N/A   Mostly Cloudy
2:15 PM 79.0 °F - 69.3 °F 72% 29.90 in 10.0 mi SSE 18.4 mph 23.0 mph N/A   Scattered Clouds
2:35 PM 78.3 °F - 69.4 °F 74% 29.88 in 10.0 mi SSE 20.7 mph 25.3 mph N/A   Scattered Clouds
2:55 PM 77.9 °F - 69.4 °F 75% 29.88 in 10.0 mi SSE 19.6 mph - N/A   Scattered Clouds
3:15 PM 77.4 °F - 69.4 °F 76% 29.88 in 10.0 mi SSE 17.3 mph 24.2 mph N/A   Scattered Clouds
3:35 PM 77.0 °F - 69.8 °F 78% 29.88 in 10.0 mi SSE 19.6 mph 24.2 mph N/A   Scattered Clouds
3:55 PM 77.0 °F - 70.2 °F 79% 29.85 in 10.0 mi SE 19.6 mph 25.3 mph N/A   Scattered Clouds
4:15 PM 76.6 °F - 70.2 °F 80% 29.82 in 10.0 mi SSE 25.3 mph 29.9 mph N/A   Scattered Clouds
4:35 PM 76.3 °F - 70.2 °F 81% 29.82 in 10.0 mi SSE 24.2 mph 28.8 mph N/A   Clear
4:55 PM 76.3 °F - 70.0 °F 81% 29.82 in 10.0 mi SSE 19.6 mph 27.6 mph N/A   Clear
5:15 PM 76.6 °F - 70.5 °F 81% 29.82 in 10.0 mi SSE 17.3 mph 26.5 mph N/A   Clear
5:35 PM 77.4 °F - 70.5 °F 79% 29.82 in 10.0 mi SE 19.6 mph 23.0 mph N/A   Clear
5:55 PM 77.4 °F - 70.2 °F 78% 29.82 in 10.0 mi SSE 16.1 mph 25.3 mph N/A   Clear
6:15 PM 79.0 °F - 70.3 °F 75% 29.83 in 10.0 mi SSE 16.1 mph 21.9 mph N/A   Scattered Clouds
6:35 PM 77.5 °F - 70.2 °F 78% 29.83 in 10.0 mi SSE 15.0 mph 23.0 mph N/A   Scattered Clouds
6:55 PM 76.8 °F - 70.3 °F 80% 29.84 in 10.0 mi SSE 13.8 mph 17.3 mph N/A   Mostly Cloudy
7:15 PM 76.1 °F - 70.5 °F 83% 29.85 in 10.0 mi SSE 12.7 mph - N/A   Mostly Cloudy
7:35 PM 75.7 °F - 70.9 °F 85% 29.84 in 10.0 mi SE 13.8 mph 17.3 mph N/A   Overcast
7:55 PM 75.4 °F - 71.2 °F 87% 29.83 in 10.0 mi SE 12.7 mph - N/A   Overcast
8:15 PM 75.2 °F - 71.2 °F 87% 29.82 in 10.0 mi SE 16.1 mph - N/A   Overcast
8:35 PM 74.7 °F - 71.6 °F 90% 29.82 in 10.0 mi SE 15.0 mph - N/A   Overcast
8:55 PM 74.7 °F - 71.6 °F 90% 29.82 in 7.0 mi SE 17.3 mph 23.0 mph N/A   Overcast
9:15 PM 74.5 °F - 71.8 °F 91% 29.82 in 7.0 mi SE 17.3 mph 23.0 mph N/A   Overcast
9:35 PM 74.8 °F - 71.8 °F 90% 29.83 in 7.0 mi SSE 18.4 mph 21.9 mph N/A   Overcast
9:55 PM 75.0 °F - 71.8 °F 90% 29.82 in 7.0 mi SSE 18.4 mph 24.2 mph N/A   Overcast
10:15 PM 74.7 °F - 72.0 °F 91% 29.82 in 7.0 mi SSE 20.7 mph 26.5 mph N/A   Overcast
10:35 PM 75.0 °F - 72.1 °F 91% 29.84 in 7.0 mi SSE 18.4 mph 27.6 mph N/A   Overcast
10:55 PM 74.7 °F - 72.1 °F 92% 29.85 in 5.0 mi SSE 17.3 mph 25.3 mph N/A   Overcast
11:15 PM 74.5 °F - 72.5 °F 94% 29.85 in 5.0 mi SSE 16.1 mph 24.2 mph N/A   Overcast
11:35 PM 74.5 °F - 72.5 °F 94% 29.86 in 5.0 mi South 11.5 mph 20.7 mph N/A   Overcast
11:55 PM 74.5 °F - 72.5 °F 94% 29.86 in 5.0 mi South 12.7 mph 17.3 mph N/A   Overcast